{"data":{"norad_id":53773,"epoch":"2026-05-24T10:43:28.552800Z","epoch_age_seconds":118743,"freshness":"FRESH","line1":"1 53773U 22111A   26144.44685825  .00000162  00000+0  28290-4 0  9994","line2":"2 53773  53.2164 303.9549 0001314  91.9518 268.1625 15.08837060205288","mean_motion":15.0883706,"eccentricity":0.0001314,"inclination_deg":53.2164,"raan_deg":303.9549,"arg_perigee_deg":91.9518,"mean_anomaly_deg":268.1625,"bstar":2.829e-5,"rev_number":20528,"period_min":95.437740639801,"perigee_km":538.84336471861,"apogee_km":540.66138604645,"semimajor_km":6917.8893753825,"source":"CELESTRAK","updated_at":"2026-05-25T13:38:17.540668Z"}}